Flag for Pakistan Weather past 2 weeks in Peshawar, Pakistan

Now
61 °F

Fog.


Feels Like: 61 °F
Forecast: 50 / 73 °F
Wind: 7 mph from Southwest

Location: Peshawar Airport

Current Time: Mar 30, 2015 at 1:56:34 AM

Latest Report: Mar 30, 2015 at 1:00 AM


Visibility: 2 mi

Pressure: 29.86 "Hg

Humidity: 88%

Dew point: 57 °F

Location of PeshawarLocation

Historic Weather in Peshawar — Graph

°F

Peshawar temperature yesterday

Maximum temperature yesterday: 72 °F (at 12:00 PM)
Minimum temperature yesterday: 57 °F (at 6:00 AM)
Average temperature yesterday: 66 °F

Past Weeks' High & Low Weather Summary

 TemperatureHumidityPressure
High90 °F (Mar 23, 4:00 PM)100% (Mar 29, 6:00 AM)32.43 "Hg (Mar 29, 6:00 AM)
Low52 °F (Mar 18, 6:00 AM)27% (Mar 27, 3:00 PM)29.77 "Hg (Mar 24, 2:00 PM)
Average68 °F62%30.00 "Hg
* Reported Midnight between Mar 14 and Mar 15 — Midnight between Mar 29 and Mar 30, Peshawar, Weather by CustomWeather, © 2015

Note: Actual official high and low records may vary slightly from our data, if they occured in-between our weather recording intervals... More about our weather records

Advertising

Peshawar weather history for previous 24 hours

 ConditionsComfort  
Time TempWeatherWind HumidityBarometerVisibility
12:00 AM
Mon, Mar 30
61 °FFog.7 mph88%29.86 "Hg2 mi
11:00 PM
Sun, Mar 29
63 °FFog.7 mph83%29.86 "Hg2 mi
10:00 PM63 °FFog.9 mph83%29.86 "Hg2 mi
9:00 PM64 °FPassing clouds.12 mph88%29.86 "Hg2 mi
8:00 PM64 °FPassing clouds.12 mph88%29.83 "Hg2 mi
7:00 PM66 °FFog.5 mph88%29.83 "Hg2 mi
6:00 PM68 °FFog.5 mph88%29.83 "Hg2 mi
5:00 PM68 °FThunderstorms. Broken clouds.12 mph64%29.80 "Hg2 mi
4:00 PM72 °FThunderstorms. Broken clouds.12 mph65%29.80 "Hg2 mi
3:00 PM72 °FThunderstorms. Broken clouds.12 mph69%32.43 "Hg2 mi
2:00 PM72 °FThunderstorms. Broken clouds.7 mph36%29.83 "Hg2 mi
1:00 PM72 °FThunderstorms. Broken clouds.12 mph65%29.86 "Hg2 mi
12:00 PM72 °FBroken clouds.12 mph65%29.89 "Hg2 mi
11:00 AM70 °FBroken clouds.14 mph69%29.92 "Hg2 mi
10:00 AM68 °FBroken clouds.7 mph69%29.89 "Hg2 mi
9:00 AM68 °FScattered clouds.7 mph69%29.89 "Hg2 mi
8:00 AM64 °FFog.5 mph83%29.86 "Hg2 mi
7:00 AM63 °FFog.7 mph83%29.86 "Hg2 mi
6:00 AM57 °FFog.5 mph100%29.83 "Hg2 mi
5:00 AM63 °FFog.5 mph83%29.83 "Hg2 mi
4:00 AM63 °FFog.7 mph83%29.83 "Hg2 mi
3:00 AM63 °FFog.9 mph83%29.83 "Hg2 mi
1:00 AM64 °FFog.9 mph88%29.89 "Hg2 mi
Weather by CustomWeather, © 2015

See weather overviewHow to use our weather pages